Home   Weather   Kopervik   Past weeks

Flag for Norway Past Weather in Kopervik, Norway — Yesterday and Last 2 Weeks

Now
46 °F

Mostly cloudy.


Feels Like: 40 °F
Forecast: 45 / 47 °F
Wind: 14 mph from West

Location: Karmoy

Current Time: Dec 4, 2016 at 12:56:26 am

Latest Report: Dec 4, 2016 at 12:20 am


Visibility: N/A

Pressure: 30.24 "Hg

Humidity: 87%

Dew Point: 43 °F

Location of KopervikLocation

Past Weather in Kopervik — Graph

°F

Kopervik Temperature Yesterday

Maximum temperature yesterday: 46 °F (at 2:50 pm)
Minimum temperature yesterday: 32 °F (at 12:20 am)
Average temperature yesterday: 39 °F

High & Low Weather Summary for the Past Weeks

 TemperatureHumidityPressure
High50 °F (Nov 22, 12:50 pm)100% (Nov 23, 5:50 am)30.51 "Hg (Nov 23, 5:50 am)
Low27 °F (Nov 28, 2:50 am)57% (Nov 27, 5:20 am)29.09 "Hg (Nov 18, 11:20 pm)
Average42 °F84%29.95 "Hg
* Reported Nov 18 11:20 pm — Dec 3 11:20 pm, Kopervik, Weather by CustomWeather, © 2016

Note: Actual official high and low records may vary slightly from our data, if they occured in-between our weather recording intervals... More about our weather records

Advertising

Kopervik Weather History for the Previous 24 Hours

Scroll right to see more
 ConditionsComfort  
Time TempWeatherWind HumidityBarometerVisibility
11:20 pm
Sat, Dec 3
46 °FMostly cloudy.14 mph87%30.24 "HgN/A
10:50 pm46 °FMostly cloudy.12 mph87%30.24 "HgN/A
10:20 pm46 °FOvercast.12 mph87%30.24 "HgN/A
9:50 pm46 °FOvercast.14 mph87%30.24 "HgN/A
8:50 pm45 °FPassing clouds.12 mph93%30.21 "HgN/A
8:20 pm46 °FPassing clouds.14 mph87%30.24 "HgN/A
7:50 pm46 °FPassing clouds.14 mph87%30.21 "HgN/A
7:20 pm46 °FOvercast.12 mph93%30.21 "HgN/A
6:50 pm41 °FPartly cloudy.10 mph87%30.21 "HgN/A
6:20 pm46 °FOvercast.10 mph87%30.21 "HgN/A
5:50 pm46 °FOvercast.12 mph87%30.21 "HgN/A
5:20 pm46 °FMostly cloudy.14 mph87%30.21 "HgN/A
4:50 pm46 °FPartly cloudy.14 mph87%30.21 "HgN/A
4:20 pm41 °FPartly cloudy.9 mph93%30.21 "HgN/A
3:50 pm43 °FPartly cloudy.9 mph87%30.21 "HgN/A
3:20 pm46 °FPartly sunny.12 mph87%30.21 "HgN/A
2:50 pm46 °FScattered showers. Broken clouds.16 mph87%30.21 "HgN/A
2:20 pm39 °FBroken clouds.15 mph93%30.21 "HgN/A
1:50 pm39 °FBroken clouds.6 mph93%30.21 "HgN/A
1:20 pm39 °FBroken clouds.10 mph87%30.21 "HgN/A
12:50 pm45 °FPartly sunny.17 mph93%30.21 "HgN/A
12:20 pm43 °FScattered showers. Partly sunny.17 mph87%30.21 "HgN/A
11:50 am37 °FBroken clouds.12 mph93%30.21 "HgN/A
11:20 am37 °FLight rain. Broken clouds.10 mph93%30.24 "HgN/A
10:50 am37 °FSprinkles. Partly sunny.12 mph87%30.24 "Hg6 mi
10:20 am37 °FScattered showers. Broken clouds.10 mph87%30.24 "HgN/A
9:50 am36 °FBroken clouds.10 mph93%30.24 "HgN/A
9:20 am36 °FBroken clouds.12 mph87%30.24 "HgN/A
8:50 am36 °FPartly cloudy.12 mph87%30.24 "HgN/A
8:20 am36 °FPassing clouds.12 mph87%30.24 "HgN/A
7:50 am34 °FPassing clouds.9 mph93%30.24 "HgN/A
7:20 am36 °FPassing clouds.10 mph93%30.24 "HgN/A
6:50 am34 °FPassing clouds.12 mph93%30.24 "HgN/A
6:20 am34 °FMostly cloudy.10 mph93%30.24 "HgN/A
5:50 am34 °FMostly cloudy.9 mph93%30.24 "HgN/A
5:20 am32 °FMostly cloudy.8 mph100%30.24 "HgN/A
4:50 am32 °FPassing clouds.7 mph93%30.24 "HgN/A
4:20 am32 °FPassing clouds.8 mph93%30.27 "HgN/A
3:50 am32 °FPassing clouds.8 mph93%30.27 "HgN/A
3:20 am34 °FLight rain. Passing clouds.8 mph93%30.27 "HgN/A
2:50 am34 °FMostly cloudy.7 mph93%30.27 "HgN/A
2:20 am32 °FMostly cloudy.9 mph93%30.27 "HgN/A
1:50 am32 °FPassing clouds.8 mph93%30.27 "HgN/A
1:20 am34 °FPassing clouds.8 mph93%30.27 "HgN/A
12:50 am32 °FMostly cloudy.8 mph100%30.27 "HgN/A
12:20 am32 °FOvercast.6 mph93%30.27 "HgN/A
Weather by CustomWeather, © 2016

See weather overviewHow to use our weather pages